,,,PA_Meas_PMT16A,,PR_Meas_QMR101_102,,RH_Meas_QMH101,,SR_Meas_QMS101,,TA_Meas_QMH101,,GenWind,,GenWind,
date,time,status,PA,status,PR,status,RH,status,SR,status,TA,status,DirAvg,status,SpdAvg,
2010-12-02, 00:00:05,VALID,997.167,VALID,0,VALID,91.3647,VALID,0,VALID,24.2263,VALID,107,VALID,0.996484,
2010-12-02, 00:01:05,VALID,997.158,VALID,0,VALID,91.3647,VALID,0,VALID,24.2848,VALID,85,VALID,1.36563,
2010-12-02, 00:02:05,VALID,997.1,VALID,0,VALID,91.2121,VALID,0,VALID,24.3647,VALID,93,VALID,1.47148,
2010-12-02, 00:03:05,VALID,997.086,VALID,0,VALID,91.0137,VALID,0,VALID,24.4428,VALID,93,VALID,1.12969,
2010-12-02, 00:04:05,VALID,997.076,VALID,0,VALID,90.7238,VALID,0,VALID,24.4818,VALID,95,VALID,0.942969,
2010-12-02, 00:05:05,VALID,997.054,VALID,0,VALID,90.5178,VALID,0,VALID,24.5013,VALID,94,VALID,0.511719,
2010-12-02, 00:06:05,VALID,997.041,VALID,0,VALID,90.4568,VALID,0,VALID,24.48,VALID,94,VALID,0.432031,
2010-12-02, 00:07:05,VALID,997.035,VALID,0,VALID,90.4034,VALID,0,VALID,24.48,VALID,94,VALID,0,
2010-12-02, 00:08:05,VALID,997.037,VALID,0,VALID,90.3576,VALID,0,VALID,24.5013,VALID,94,VALID,0,
2010-12-02, 00:09:05,VALID,997.031,VALID,0,VALID,90.3728,VALID,0,VALID,24.4818,VALID,94,VALID,0,
2010-12-02, 00:10:05,VALID,997.03,VALID,0,VALID,90.4034,VALID,0,VALID,24.4409,VALID,123,VALID,0,
2010-12-02, 00:11:05,VALID,997.023,VALID,0,VALID,90.3957,VALID,0,VALID,24.4818,VALID,148,VALID,0.507813,
2010-12-02, 00:12:05,VALID,997.045,VALID,0,VALID,90.3805,VALID,0,VALID,24.4818,VALID,148,VALID,0.590234,
2010-12-02, 00:13:05,VALID,997.015,VALID,0,VALID,90.3652,VALID,0,VALID,24.4623,VALID,149,VALID,0.253516,
2010-12-02, 00:14:05,VALID,997.016,VALID,0,VALID,90.4034,VALID,0,VALID,24.4623,VALID,149,VALID,0.379297,
2010-12-02, 00:15:05,VALID,996.995,VALID,0,VALID,90.3118,VALID,0,VALID,24.4623,VALID,148,VALID,0.128906,
2010-12-02, 00:16:05,VALID,996.998,VALID,0,VALID,90.0295,VALID,0,VALID,24.4604,VALID,148,VALID,0.552344,
2010-12-02, 00:17:05,VALID,996.941,VALID,0,VALID,89.7091,VALID,0,VALID,24.5013,VALID,142,VALID,0.689062,
2010-12-02, 00:18:05,VALID,996.926,VALID,0,VALID,89.4649,VALID,0,VALID,24.4995,VALID,120,VALID,0.523438,
2010-12-02, 00:19:05,VALID,996.876,VALID,0,VALID,89.1826,VALID,0,VALID,24.48,VALID,114,VALID,0.85625,
2010-12-02, 00:20:05,VALID,996.839,VALID,0,VALID,88.9309,VALID,0,VALID,24.48,VALID,121,VALID,0.679688,
2010-12-02, 00:21:05,VALID,996.831,VALID,0,VALID,88.7554,VALID,0,VALID,24.5013,VALID,121,VALID,0.453516,
2010-12-02, 00:22:05,VALID,996.809,VALID,0,VALID,88.7554,VALID,0,VALID,24.4623,VALID,121,VALID,0.273047,
2010-12-02, 00:23:05,VALID,996.756,VALID,0,VALID,88.8088,VALID,0,VALID,24.4428,VALID,121,VALID,0,
2010-12-02, 00:24:05,VALID,996.755,VALID,0,VALID,88.9156,VALID,0,VALID,24.4233,VALID,121,VALID,0,
2010-12-02, 00:25:05,VALID,996.713,VALID,0,VALID,88.9537,VALID,0,VALID,24.4037,VALID,121,VALID,0,
2010-12-02, 00:26:05,VALID,996.734,VALID,0,VALID,89.0377,VALID,0,VALID,24.3842,VALID,121,VALID,0.163672,
2010-12-02, 00:27:05,VALID,996.712,VALID,0,VALID,89.0834,VALID,0,VALID,24.3452,VALID,120,VALID,0.415234,
2010-12-02, 00:28:05,VALID,996.693,VALID,0,VALID,89.1292,VALID,0,VALID,24.3062,VALID,111,VALID,0.642187,
2010-12-02, 00:29:05,VALID,996.696,VALID,0,VALID,89.2589,VALID,0,VALID,24.2848,VALID,111,VALID,0.485156,
2010-12-02, 00:30:05,VALID,996.718,VALID,0,VALID,89.4497,VALID,0,VALID,24.2866,VALID,111,VALID,0.521094,
2010-12-02, 00:31:05,VALID,996.724,VALID,0,VALID,89.5412,VALID,0,VALID,24.2671,VALID,111,VALID,0.451172,
2010-12-02, 00:32:05,VALID,996.722,VALID,0,VALID,89.5641,VALID,0,VALID,24.2671,VALID,111,VALID,0.489844,
2010-12-02, 00:33:05,VALID,996.7,VALID,0,VALID,89.7854,VALID,0,VALID,24.2476,VALID,78,VALID,0.708203,
2010-12-02, 00:34:05,VALID,996.738,VALID,0,VALID,89.9609,VALID,0,VALID,24.2263,VALID,66,VALID,0.639453,
2010-12-02, 00:35:05,VALID,996.746,VALID,0,VALID,90.0677,VALID,0,VALID,24.2671,VALID,66,VALID,0.462891,
2010-12-02, 00:36:05,VALID,996.751,VALID,0,VALID,90.0448,VALID,0,VALID,24.2671,VALID,66,VALID,0.349219,
2010-12-02, 00:37:05,VALID,996.766,VALID,0,VALID,89.9914,VALID,0,VALID,24.2671,VALID,66,VALID,0.412891,
2010-12-02, 00:38:05,VALID,996.734,VALID,0,VALID,89.9456,VALID,0,VALID,24.2671,VALID,67,VALID,0.587891,
2010-12-02, 00:39:05,VALID,996.712,VALID,0,VALID,89.8464,VALID,0,VALID,24.2866,VALID,67,VALID,0.250781,
2010-12-02, 00:40:05,VALID,996.689,VALID,0,VALID,89.7091,VALID,0,VALID,24.2653,VALID,66,VALID,0.517578,
2010-12-02, 00:41:05,VALID,996.685,VALID,0,VALID,89.7549,VALID,0,VALID,24.3062,VALID,66,VALID,0.674609,
2010-12-02, 00:42:05,VALID,996.669,VALID,0,VALID,89.9151,VALID,0,VALID,24.3043,VALID,66,VALID,0.622656,
2010-12-02, 00:43:05,VALID,996.614,VALID,0,VALID,90.0982,VALID,0,VALID,24.3452,VALID,35,VALID,0.682031,
2010-12-02, 00:44:05,VALID,996.622,VALID,0,VALID,90.06,VALID,0,VALID,24.3452,VALID,35,VALID,0.700391,
2010-12-02, 00:45:05,VALID,996.589,VALID,0,VALID,90.0753,VALID,0,VALID,24.3043,VALID,42,VALID,0.710938,
2010-12-02, 00:46:05,VALID,996.533,VALID,0,VALID,90.1134,VALID,0,VALID,24.3452,VALID,42,VALID,0.480859,
2010-12-02, 00:47:05,VALID,996.518,VALID,0,VALID,90.0524,VALID,0,VALID,24.3257,VALID,42,VALID,0.303906,
2010-12-02, 00:48:05,VALID,996.537,VALID,0,VALID,89.9761,VALID,0,VALID,24.3062,VALID,42,VALID,0.393359,
2010-12-02, 00:49:05,VALID,996.501,VALID,0,VALID,89.854,VALID,0,VALID,24.2848,VALID,42,VALID,0.436328,
2010-12-02, 00:50:05,VALID,996.495,VALID,0,VALID,89.8311,VALID,0,VALID,24.3043,VALID,39,VALID,0.712891,
2010-12-02, 00:51:05,VALID,996.446,VALID,0,VALID,89.7243,VALID,0,VALID,24.3043,VALID,43,VALID,0.775,
2010-12-02, 00:52:05,VALID,996.444,VALID,0,VALID,89.5565,VALID,0,VALID,24.3238,VALID,53,VALID,0.8,
2010-12-02, 00:53:05,VALID,996.429,VALID,0,VALID,89.4649,VALID,0,VALID,24.3647,VALID,27,VALID,0.884375,
2010-12-02, 00:54:05,VALID,996.412,VALID,0,VALID,89.526,VALID,0,VALID,24.3433,VALID,9,VALID,1.0125,
2010-12-02, 00:55:05,VALID,996.418,VALID,0,VALID,89.7854,VALID,0,VALID,24.3257,VALID,9,VALID,1.11797,
2010-12-02, 00:56:05,VALID,996.397,VALID,0,VALID,90.0906,VALID,0,VALID,24.3062,VALID,4,VALID,0.991406,
2010-12-02, 00:57:05,VALID,996.391,VALID,0,VALID,90.3042,VALID,0,VALID,24.2653,VALID,5,VALID,0.998438,
2010-12-02, 00:58:05,VALID,996.371,VALID,0,VALID,90.4644,VALID,0,VALID,24.2671,VALID,6,VALID,1.10195,
2010-12-02, 00:59:05,VALID,996.355,VALID,0,VALID,90.5865,VALID,0,VALID,24.2067,VALID,6,VALID,0.926172,
2010-12-02, 01:00:05,VALID,996.279,VALID,0,VALID,90.678,VALID,0,VALID,24.1872,VALID,6,VALID,1.02617,
2010-12-02, 01:01:05,VALID,996.265,VALID,0,VALID,90.762,VALID,0,VALID,24.1872,VALID,6,VALID,0.667188,
2010-12-02, 01:02:05,VALID,996.247,VALID,0,VALID,90.8535,VALID,0,VALID,24.2086,VALID,6,VALID,0.682813,
2010-12-02, 01:03:05,VALID,996.216,VALID,0,VALID,90.9069,VALID,0,VALID,24.1872,VALID,6,VALID,0.448047,
2010-12-02, 01:04:05,VALID,996.2,VALID,0,VALID,90.9909,VALID,0,VALID,24.2086,VALID,6,VALID,0.242188,
2010-12-02, 01:05:04,VALID,996.221,VALID,0,VALID,90.9909,VALID,0,VALID,24.1891,VALID,6,VALID,0.429297,
2010-12-02, 01:06:04,VALID,996.191,VALID,0,VALID,91.0366,VALID,0,VALID,24.1696,VALID,6,VALID,0.130469,
2010-12-02, 01:07:04,VALID,996.151,VALID,0,VALID,91.0671,VALID,0,VALID,24.1696,VALID,6,VALID,0,
2010-12-02, 01:08:04,VALID,996.163,VALID,0,VALID,91.0366,VALID,0,VALID,24.1092,VALID,6,VALID,0.0046875,
2010-12-02, 01:09:04,VALID,996.112,VALID,0,VALID,91.1129,VALID,0,VALID,24.1092,VALID,6,VALID,0.389844,
2010-12-02, 01:10:04,VALID,996.071,VALID,0,VALID,91.1663,VALID,0,VALID,24.0897,VALID,6,VALID,0.637891,
2010-12-02, 01:11:04,VALID,996.047,VALID,0,VALID,91.235,VALID,0,VALID,24.0701,VALID,50,VALID,0.712109,
2010-12-02, 01:12:04,VALID,996.023,VALID,0,VALID,91.3494,VALID,0,VALID,24.0701,VALID,54,VALID,0.814453,
2010-12-02, 01:13:04,VALID,996.027,VALID,0,VALID,91.4028,VALID,0,VALID,24.0701,VALID,61,VALID,0.837891,
2010-12-02, 01:14:04,VALID,996.002,VALID,0,VALID,91.4486,VALID,0,VALID,24.0506,VALID,76,VALID,0.866016,
2010-12-02, 01:15:04,VALID,995.997,VALID,0,VALID,91.4639,VALID,0,VALID,24.0311,VALID,80,VALID,1.05273,
2010-12-02, 01:16:04,VALID,996.044,VALID,0,VALID,91.4715,VALID,0,VALID,24.0134,VALID,83,VALID,1.00859,
2010-12-02, 01:17:04,VALID,995.993,VALID,0,VALID,91.4715,VALID,0,VALID,23.9939,VALID,83,VALID,0.942969,
2010-12-02, 01:18:04,VALID,995.974,VALID,0,VALID,91.502,VALID,0,VALID,23.9336,VALID,83,VALID,0.65625,
2010-12-02, 01:19:04,VALID,995.932,VALID,0,VALID,91.5478,VALID,0,VALID,23.9354,VALID,83,VALID,0.452344,
2010-12-02, 01:20:04,VALID,995.927,VALID,0,VALID,91.5707,VALID,0,VALID,23.8945,VALID,83,VALID,0.361328,
2010-12-02, 01:21:04,VALID,995.884,VALID,0,VALID,91.6317,VALID,0,VALID,23.875,VALID,83,VALID,0.263281,
2010-12-02, 01:22:04,VALID,995.898,VALID,0,VALID,91.6241,VALID,0,VALID,23.8555,VALID,83,VALID,0.142969,
2010-12-02, 01:23:04,VALID,995.875,VALID,0,VALID,91.6546,VALID,0,VALID,23.8165,VALID,83,VALID,0,
2010-12-02, 01:24:04,VALID,995.895,VALID,0,VALID,91.7004,VALID,0,VALID,23.797,VALID,83,VALID,0,
2010-12-02, 01:25:04,VALID,995.859,VALID,0,VALID,91.7691,VALID,0,VALID,23.7793,VALID,83,VALID,0,
2010-12-02, 01:26:04,VALID,995.855,VALID,0,VALID,91.8454,VALID,0,VALID,23.7793,VALID,83,VALID,0,
2010-12-02, 01:27:04,VALID,995.829,VALID,0,VALID,91.8759,VALID,0,VALID,23.7811,VALID,83,VALID,0,
2010-12-02, 01:28:04,VALID,995.802,VALID,0,VALID,91.9369,VALID,0,VALID,23.7811,VALID,83,VALID,0,
2010-12-02, 01:29:04,VALID,995.792,VALID,0,VALID,92.0437,VALID,0,VALID,23.7988,VALID,145,VALID,0.0503906,
2010-12-02, 01:30:04,VALID,995.757,VALID,0,VALID,92.1353,VALID,0,VALID,23.7988,VALID,145,VALID,0.726563,
2010-12-02, 01:31:04,VALID,995.754,VALID,0,VALID,92.2421,VALID,0,VALID,23.8378,VALID,149,VALID,0.682422,
2010-12-02, 01:32:04,VALID,995.737,VALID,0,VALID,92.2879,VALID,0,VALID,23.8573,VALID,162,VALID,0.772656,
2010-12-02, 01:33:04,VALID,995.695,VALID,0,VALID,92.3489,VALID,0,VALID,23.9177,VALID,155,VALID,0.998047,
2010-12-02, 01:34:04,VALID,995.695,VALID,0,VALID,92.3642,VALID,0,VALID,23.9549,VALID,155,VALID,0.562109,
2010-12-02, 01:35:04,VALID,995.689,VALID,0,VALID,92.3642,VALID,0,VALID,23.9957,VALID,155,VALID,0.306641,
2010-12-02, 01:36:04,VALID,995.652,VALID,0,VALID,92.3489,VALID,0,VALID,24.0134,VALID,155,VALID,0.35625,
2010-12-02, 01:37:04,VALID,995.62,VALID,0,VALID,92.2955,VALID,0,VALID,24.0329,VALID,155,VALID,0.114453,
2010-12-02, 01:38:04,VALID,995.656,VALID,0,VALID,92.2574,VALID,0,VALID,24.0329,VALID,155,VALID,0,
2010-12-02, 01:39:04,VALID,995.679,VALID,0,VALID,92.1353,VALID,0,VALID,23.9939,VALID,155,VALID,0.0574219,
2010-12-02, 01:40:04,VALID,995.666,VALID,0,VALID,92.1048,VALID,0,VALID,24.0329,VALID,155,VALID,0,
2010-12-02, 01:41:04,VALID,995.658,VALID,0,VALID,92.0666,VALID,0,VALID,24.0116,VALID,155,VALID,0.0957031,
2010-12-02, 01:42:04,VALID,995.688,VALID,0,VALID,92.0056,VALID,0,VALID,24.0134,VALID,155,VALID,0.139062,
2010-12-02, 01:43:04,VALID,995.673,VALID,0,VALID,91.9903,VALID,0,VALID,23.9921,VALID,155,VALID,0.250391,
2010-12-02, 01:44:04,VALID,995.678,VALID,0,VALID,91.998,VALID,0,VALID,24.0134,VALID,155,VALID,0.367969,
2010-12-02, 01:45:04,VALID,995.653,VALID,0,VALID,91.998,VALID,0,VALID,24.0134,VALID,155,VALID,0.3125,
2010-12-02, 01:46:04,VALID,995.642,VALID,0,VALID,92.0285,VALID,0,VALID,24.0134,VALID,155,VALID,0.414063,
2010-12-02, 01:47:04,VALID,995.633,VALID,0,VALID,91.9827,VALID,0,VALID,24.0134,VALID,155,VALID,0.346484,
2010-12-02, 01:48:04,VALID,995.621,VALID,0,VALID,91.9445,VALID,0,VALID,23.9921,VALID,155,VALID,0.434766,
2010-12-02, 01:49:04,VALID,995.598,VALID,0,VALID,91.8835,VALID,0,VALID,23.9939,VALID,155,VALID,0.426953,
2010-12-02, 01:50:04,VALID,995.576,VALID,0,VALID,91.8377,VALID,0.112286,VALID,23.9744,VALID,155,VALID,0.38125,
2010-12-02, 01:51:04,VALID,995.576,VALID,0,VALID,91.8377,VALID,0.112286,VALID,23.9531,VALID,155,VALID,0.327344,
2010-12-02, 01:52:04,VALID,995.588,VALID,0,VALID,91.8377,VALID,0,VALID,23.9336,VALID,155,VALID,0.372266,
2010-12-02, 01:53:04,VALID,995.549,VALID,0,VALID,91.8454,VALID,0,VALID,23.9336,VALID,155,VALID,0.418359,
2010-12-02, 01:54:04,VALID,995.593,VALID,0,VALID,91.8759,VALID,0,VALID,23.9354,VALID,155,VALID,0.458984,
2010-12-02, 01:55:04,VALID,995.575,VALID,0,VALID,91.8835,VALID,0,VALID,23.9354,VALID,155,VALID,0.505078,
2010-12-02, 01:56:04,VALID,995.54,VALID,0,VALID,91.9369,VALID,0,VALID,23.9549,VALID,155,VALID,0.5375,
2010-12-02, 01:57:04,VALID,995.546,VALID,0,VALID,91.9522,VALID,0,VALID,23.9354,VALID,143,VALID,0.538281,
2010-12-02, 01:58:04,VALID,995.552,VALID,0,VALID,91.8911,VALID,0,VALID,23.8555,VALID,143,VALID,0.396094,
2010-12-02, 01:59:04,VALID,995.58,VALID,0,VALID,91.8454,VALID,0,VALID,23.8378,VALID,143,VALID,0.297266,
2010-12-02, 02:00:04,VALID,995.595,VALID,0,VALID,91.8225,VALID,0,VALID,23.797,VALID,143,VALID,0.426953,
2010-12-02, 02:01:04,VALID,995.61,VALID,0,VALID,91.8301,VALID,0,VALID,23.7775,VALID,143,VALID,0.592188,
2010-12-02, 02:02:04,VALID,995.624,VALID,0,VALID,91.8225,VALID,0,VALID,23.7597,VALID,143,VALID,0.502344,
2010-12-02, 02:03:04,VALID,995.634,VALID,0,VALID,91.8148,VALID,0,VALID,23.7207,VALID,143,VALID,0.487109,
2010-12-02, 02:04:04,VALID,995.628,VALID,0,VALID,91.8454,VALID,0,VALID,23.6604,VALID,143,VALID,0.301172,
2010-12-02, 02:05:04,VALID,995.645,VALID,0,VALID,91.8606,VALID,0.112286,VALID,23.6214,VALID,143,VALID,0.075,
2010-12-02, 02:06:04,VALID,995.643,VALID,0,VALID,91.8683,VALID,0,VALID,23.5628,VALID,143,VALID,0,
2010-12-02, 02:07:04,VALID,995.64,VALID,0,VALID,91.8835,VALID,0,VALID,23.5433,VALID,143,VALID,0,
2010-12-02, 02:08:04,VALID,995.628,VALID,0,VALID,91.9445,VALID,0,VALID,23.5451,VALID,143,VALID,0,
2010-12-02, 02:09:04,VALID,995.616,VALID,0,VALID,92.0285,VALID,0,VALID,23.5238,VALID,143,VALID,0,
2010-12-02, 02:10:04,VALID,995.622,VALID,0,VALID,92.1582,VALID,0,VALID,23.5841,VALID,143,VALID,0,
2010-12-02, 02:11:04,VALID,995.598,VALID,0,VALID,92.2497,VALID,0,VALID,23.5628,VALID,143,VALID,0,
2010-12-02, 02:12:04,VALID,995.59,VALID,0,VALID,92.3108,VALID,0,VALID,23.5646,VALID,143,VALID,0,
2010-12-02, 02:13:04,VALID,995.565,VALID,0,VALID,92.3794,VALID,0,VALID,23.5238,VALID,143,VALID,0,
2010-12-02, 02:14:04,VALID,995.55,VALID,0,VALID,92.4252,VALID,0,VALID,23.5451,VALID,143,VALID,0,
2010-12-02, 02:15:04,VALID,995.485,VALID,0,VALID,92.4786,VALID,0,VALID,23.5043,VALID,143,VALID,0,
2010-12-02, 02:16:04,VALID,995.49,VALID,0,VALID,92.5473,VALID,0,VALID,23.4848,VALID,143,VALID,0,
2010-12-02, 02:17:04,VALID,995.444,VALID,0,VALID,92.5931,VALID,0,VALID,23.5238,VALID,143,VALID,0,
2010-12-02, 02:18:04,VALID,995.452,VALID,0,VALID,92.6541,VALID,0,VALID,23.5646,VALID,143,VALID,0.0273438,
2010-12-02, 02:19:04,VALID,995.484,VALID,0,VALID,92.7151,VALID,0,VALID,23.5823,VALID,143,VALID,0,
2010-12-02, 02:20:04,VALID,995.437,VALID,0,VALID,92.7457,VALID,0,VALID,23.5823,VALID,143,VALID,0,
2010-12-02, 02:21:04,VALID,995.458,VALID,0,VALID,92.7914,VALID,0,VALID,23.6019,VALID,143,VALID,0,
2010-12-02, 02:22:04,VALID,995.431,VALID,0,VALID,92.8067,VALID,0,VALID,23.6036,VALID,143,VALID,0,
2010-12-02, 02:23:04,VALID,995.471,VALID,0,VALID,92.8372,VALID,0,VALID,23.6232,VALID,143,VALID,0,
2010-12-02, 02:24:04,VALID,995.468,VALID,0,VALID,92.8143,VALID,0,VALID,23.6036,VALID,143,VALID,0,
2010-12-02, 02:25:04,VALID,995.453,VALID,0,VALID,92.8372,VALID,0,VALID,23.5841,VALID,143,VALID,0,
2010-12-02, 02:26:04,VALID,995.471,VALID,0,VALID,92.8525,VALID,0,VALID,23.5841,VALID,143,VALID,0,
2010-12-02, 02:27:04,VALID,995.508,VALID,0,VALID,92.883,VALID,0,VALID,23.5433,VALID,143,VALID,0,
2010-12-02, 02:28:04,VALID,995.468,VALID,0,VALID,92.8754,VALID,0,VALID,23.5628,VALID,143,VALID,0,
2010-12-02, 02:29:04,VALID,995.444,VALID,0,VALID,92.8906,VALID,0,VALID,23.5646,VALID,143,VALID,0.633984,
2010-12-02, 02:30:04,VALID,995.507,VALID,0,VALID,92.8754,VALID,0,VALID,23.5646,VALID,143,VALID,0.605078,
2010-12-02, 02:31:04,VALID,995.484,VALID,0,VALID,92.8906,VALID,0,VALID,23.6036,VALID,143,VALID,0.701172,
2010-12-02, 02:32:04,VALID,995.484,VALID,0,VALID,92.883,VALID,0,VALID,23.6019,VALID,109,VALID,0.789063,
2010-12-02, 02:33:04,VALID,995.527,VALID,0,VALID,92.8296,VALID,0,VALID,23.6214,VALID,109,VALID,0.888672,
2010-12-02, 02:34:04,VALID,995.499,VALID,0,VALID,92.7838,VALID,0,VALID,23.6427,VALID,109,VALID,0.908984,
2010-12-02, 02:35:04,VALID,995.557,VALID,0,VALID,92.6999,VALID,0,VALID,23.5628,VALID,109,VALID,0.672656,
2010-12-02, 02:36:04,VALID,995.542,VALID,0,VALID,92.5854,VALID,0,VALID,23.5238,VALID,109,VALID,0.155859,
2010-12-02, 02:37:04,VALID,995.552,VALID,0,VALID,92.5091,VALID,0,VALID,23.5061,VALID,109,VALID,0,
2010-12-02, 02:38:04,VALID,995.544,VALID,0,VALID,92.3642,VALID,0,VALID,23.4653,VALID,109,VALID,0,
2010-12-02, 02:39:04,VALID,995.55,VALID,0,VALID,92.2726,VALID,0,VALID,23.4671,VALID,109,VALID,0,
2010-12-02, 02:40:04,VALID,995.578,VALID,0,VALID,92.2268,VALID,0,VALID,23.4458,VALID,109,VALID,0,
2010-12-02, 02:41:04,VALID,995.564,VALID,0,VALID,92.1811,VALID,0,VALID,23.4263,VALID,109,VALID,0,
2010-12-02, 02:42:04,VALID,995.564,VALID,0,VALID,92.1734,VALID,0,VALID,23.428,VALID,109,VALID,0,
2010-12-02, 02:43:04,VALID,995.578,VALID,0,VALID,92.1658,VALID,0,VALID,23.4067,VALID,109,VALID,0,
2010-12-02, 02:44:04,VALID,995.526,VALID,0,VALID,92.1429,VALID,0,VALID,23.3872,VALID,109,VALID,0,
2010-12-02, 02:45:04,VALID,995.489,VALID,0,VALID,92.204,VALID,0,VALID,23.3677,VALID,109,VALID,0,
2010-12-02, 02:46:04,VALID,995.492,VALID,0,VALID,92.265,VALID,0,VALID,23.3677,VALID,109,VALID,0,
2010-12-02, 02:47:04,VALID,995.482,VALID,0,VALID,92.2879,VALID,0,VALID,23.3677,VALID,109,VALID,0,
2010-12-02, 02:48:04,VALID,995.441,VALID,0,VALID,92.326,VALID,0,VALID,23.3872,VALID,109,VALID,0,
2010-12-02, 02:49:04,VALID,995.438,VALID,0,VALID,92.3871,VALID,0,VALID,23.3872,VALID,109,VALID,0,
2010-12-02, 02:50:04,VALID,995.39,VALID,0,VALID,92.4252,VALID,0,VALID,23.4067,VALID,109,VALID,0,
2010-12-02, 02:51:04,VALID,995.396,VALID,0,VALID,92.4863,VALID,0,VALID,23.4263,VALID,109,VALID,0,
2010-12-02, 02:52:04,VALID,995.369,VALID,0,VALID,92.4939,VALID,0,VALID,23.4263,VALID,109,VALID,0,
2010-12-02, 02:53:04,VALID,995.36,VALID,0,VALID,92.5397,VALID,0,VALID,23.4458,VALID,109,VALID,0,
2010-12-02, 02:54:04,VALID,995.366,VALID,0,VALID,92.5702,VALID,0,VALID,23.4263,VALID,109,VALID,0,
2010-12-02, 02:55:04,VALID,995.357,VALID,0,VALID,92.5931,VALID,0,VALID,23.4067,VALID,109,VALID,0,
2010-12-02, 02:56:04,VALID,995.348,VALID,0,VALID,92.5931,VALID,0,VALID,23.428,VALID,109,VALID,0,
2010-12-02, 02:57:04,VALID,995.389,VALID,0,VALID,92.5931,VALID,0,VALID,23.389,VALID,109,VALID,0,
2010-12-02, 02:58:04,VALID,995.35,VALID,0,VALID,92.616,VALID,0,VALID,23.3677,VALID,109,VALID,0,
2010-12-02, 02:59:04,VALID,995.388,VALID,0,VALID,92.6312,VALID,0,VALID,23.4085,VALID,109,VALID,0,
2010-12-02, 03:00:04,VALID,995.387,VALID,0,VALID,92.6694,VALID,0,VALID,23.4067,VALID,109,VALID,0,
2010-12-02, 03:01:04,VALID,995.374,VALID,0,VALID,92.677,VALID,0,VALID,23.4475,VALID,109,VALID,0,
2010-12-02, 03:02:04,VALID,995.377,VALID,0,VALID,92.7075,VALID,0,VALID,23.4475,VALID,109,VALID,0.665234,
2010-12-02, 03:03:04,VALID,995.4,VALID,0,VALID,92.677,VALID,0,VALID,23.4458,VALID,109,VALID,0.584766,
2010-12-02, 03:04:04,VALID,995.403,VALID,0,VALID,92.6694,VALID,0,VALID,23.428,VALID,109,VALID,0.533984,
2010-12-02, 03:05:04,VALID,995.428,VALID,0,VALID,92.6312,VALID,0,VALID,23.4067,VALID,109,VALID,0.510156,
2010-12-02, 03:06:04,VALID,995.456,VALID,0,VALID,92.616,VALID,0,VALID,23.3872,VALID,109,VALID,0.451562,
2010-12-02, 03:07:04,VALID,995.442,VALID,0,VALID,92.5626,VALID,0,VALID,23.3677,VALID,109,VALID,0.455469,
2010-12-02, 03:08:04,VALID,995.476,VALID,0,VALID,92.5397,VALID,0,VALID,23.389,VALID,109,VALID,0.658594,
2010-12-02, 03:09:04,VALID,995.46,VALID,0,VALID,92.5015,VALID,0,VALID,23.3695,VALID,109,VALID,0.696875,
2010-12-02, 03:10:04,VALID,995.47,VALID,0,VALID,92.4481,VALID,0,VALID,23.3305,VALID,109,VALID,0.415625,
2010-12-02, 03:11:04,VALID,995.448,VALID,0,VALID,92.4023,VALID,0,VALID,23.2915,VALID,109,VALID,0.0480469,
2010-12-02, 03:12:04,VALID,995.44,VALID,0,VALID,92.3794,VALID,0,VALID,23.2915,VALID,109,VALID,0,
2010-12-02, 03:13:04,VALID,995.43,VALID,0,VALID,92.3337,VALID,0,VALID,23.2329,VALID,109,VALID,0,
2010-12-02, 03:14:04,VALID,995.416,VALID,0,VALID,92.3337,VALID,0,VALID,23.2117,VALID,109,VALID,0,
2010-12-02, 03:15:04,VALID,995.418,VALID,0,VALID,92.3108,VALID,0,VALID,23.1726,VALID,109,VALID,0,
2010-12-02, 03:16:04,VALID,995.387,VALID,0,VALID,92.3413,VALID,0,VALID,23.1939,VALID,109,VALID,0,
2010-12-02, 03:17:04,VALID,995.379,VALID,0,VALID,92.3718,VALID,0,VALID,23.1744,VALID,109,VALID,0,
2010-12-02, 03:18:04,VALID,995.331,VALID,0,VALID,92.41,VALID,0,VALID,23.1744,VALID,109,VALID,0,
2010-12-02, 03:19:04,VALID,995.31,VALID,0,VALID,92.471,VALID,0,VALID,23.1744,VALID,109,VALID,0,
2010-12-02, 03:20:04,VALID,995.292,VALID,0,VALID,92.532,VALID,0,VALID,23.2329,VALID,109,VALID,0,
2010-12-02, 03:21:04,VALID,995.319,VALID,0,VALID,92.6236,VALID,0,VALID,23.2702,VALID,109,VALID,0,
2010-12-02, 03:22:04,VALID,995.372,VALID,0,VALID,92.677,VALID,0,VALID,23.2897,VALID,109,VALID,0,
2010-12-02, 03:23:04,VALID,995.375,VALID,0,VALID,92.7075,VALID,0,VALID,23.2897,VALID,109,VALID,0,
2010-12-02, 03:24:04,VALID,995.398,VALID,0,VALID,92.7685,VALID,0,VALID,23.2702,VALID,109,VALID,0,
2010-12-02, 03:25:04,VALID,995.436,VALID,0,VALID,92.7609,VALID,0,VALID,23.2719,VALID,109,VALID,0,
2010-12-02, 03:26:04,VALID,995.458,VALID,0,VALID,92.7914,VALID,0,VALID,23.2542,VALID,109,VALID,0,
2010-12-02, 03:27:04,VALID,995.468,VALID,0,VALID,92.822,VALID,0,VALID,23.2524,VALID,109,VALID,0,
2010-12-02, 03:28:04,VALID,995.51,VALID,0,VALID,92.8448,VALID,0,VALID,23.1939,VALID,109,VALID,0,
2010-12-02, 03:29:04,VALID,995.566,VALID,0,VALID,92.883,VALID,0,VALID,23.2719,VALID,131,VALID,1.13516,
2010-12-02, 03:30:04,VALID,995.589,VALID,0,VALID,92.8677,VALID,0,VALID,23.2524,VALID,141,VALID,1.09258,
2010-12-02, 03:31:04,VALID,995.586,VALID,0,VALID,92.8525,VALID,0,VALID,23.2719,VALID,141,VALID,1.05703,
2010-12-02, 03:32:04,VALID,995.612,VALID,0,VALID,92.8143,VALID,0,VALID,23.2719,VALID,141,VALID,0.933203,
2010-12-02, 03:33:04,VALID,995.611,VALID,0,VALID,92.7457,VALID,0,VALID,23.2932,VALID,141,VALID,0.786328,
2010-12-02, 03:34:04,VALID,995.625,VALID,0,VALID,92.677,VALID,0,VALID,23.2915,VALID,143,VALID,0.662891,
2010-12-02, 03:35:04,VALID,995.644,VALID,0,VALID,92.5931,VALID,0,VALID,23.2915,VALID,162,VALID,0.857422,
2010-12-02, 03:36:04,VALID,995.655,VALID,0,VALID,92.5168,VALID,0,VALID,23.3305,VALID,169,VALID,0.989453,
2010-12-02, 03:37:04,VALID,995.696,VALID,0,VALID,92.4023,VALID,0,VALID,23.3695,VALID,168,VALID,1.18008,
2010-12-02, 03:38:04,VALID,995.734,VALID,0,VALID,92.2726,VALID,0,VALID,23.4085,VALID,168,VALID,1.14141,
2010-12-02, 03:39:04,VALID,995.809,VALID,0,VALID,92.0743,VALID,0,VALID,23.4475,VALID,162,VALID,0.873828,
2010-12-02, 03:40:04,VALID,995.887,VALID,0,VALID,91.8454,VALID,0,VALID,23.4848,VALID,153,VALID,0.709375,
2010-12-02, 03:41:04,VALID,995.95,VALID,0,VALID,91.4868,VALID,0,VALID,23.5256,VALID,150,VALID,0.739062,
2010-12-02, 03:42:04,VALID,996.008,VALID,0,VALID,91.1358,VALID,0,VALID,23.5451,VALID,150,VALID,0.423047,
2010-12-02, 03:43:04,VALID,996.041,VALID,0,VALID,90.7849,VALID,0,VALID,23.5238,VALID,150,VALID,0.276563,
2010-12-02, 03:44:04,VALID,996.037,VALID,0,VALID,90.5865,VALID,0,VALID,23.5451,VALID,150,VALID,0.203906,
2010-12-02, 03:45:04,VALID,996.014,VALID,0,VALID,90.4797,VALID,0,VALID,23.5043,VALID,150,VALID,0.322266,
2010-12-02, 03:46:04,VALID,996.013,VALID,0,VALID,90.472,VALID,0,VALID,23.4848,VALID,150,VALID,0.347656,
2010-12-02, 03:47:04,VALID,996.01,VALID,0,VALID,90.5178,VALID,0.112286,VALID,23.5061,VALID,150,VALID,0.451172,
2010-12-02, 03:48:04,VALID,995.98,VALID,0,VALID,90.6246,VALID,0,VALID,23.5238,VALID,150,VALID,0.277344,
2010-12-02, 03:49:04,VALID,995.995,VALID,0,VALID,90.6857,VALID,0,VALID,23.5238,VALID,150,VALID,0,
2010-12-02, 03:50:04,VALID,995.976,VALID,0,VALID,90.7238,VALID,0,VALID,23.5646,VALID,150,VALID,0,